Location: Bilbao
(43.2500°N, 2.9667°W)
Time: 09:35:18
(UTC+02:00)

ISS - Visible Passes

Search period start: 21 June 2021 00:00
Search period end: 01 July 2021 00:00
Orbit: 417 x 422 km, 51.6° (Epoch: 20 June)

Date Brightness Start Highest point End Pass type
(mag) Time Alt. Az. Time Alt. Az. Time Alt. Az.
25 Jun -1.2 05:46:31 10° SSE 05:48:12 13° SE 05:49:53 10° E visible
27 Jun -2.7 05:46:39 10° SSW 05:49:46 35° SE 05:52:53 10° ENE visible
28 Jun -2.0 05:00:51 16° S 05:02:26 22° SE 05:05:06 10° E visible
29 Jun -1.4 04:15:10 13° SE 04:15:10 13° SE 04:16:52 10° E visible
29 Jun -3.7 05:48:10 10° WSW 05:51:33 83° NNW 05:54:55 10° NE visible
30 Jun -3.6 05:02:24 25° SW 05:04:06 60° SE 05:07:26 10° ENE visible
